KLM420 EHAM-ELLX

Flight info

Callsign KLM420
Flight time 0h 39m
Altitude 27000
Route LOPIK N852 LNO
Aircraft B38M/M-SDE1FGHILORVWXY/HB1

Departure

Time 2026-05-04 13:16
Airport Amsterdam Airport Schiphol (EHAM)

Arrival

Time 2026-05-04 13:55
Airport Luxembourg-Findel International Airport (ELLX)
Time Latitude Longitude Altitude Speed Heading
2026-05-04 12:56 52.30889 4.77299 11 ft 0 kts
2026-05-04 13:08 52.30882 4.77299 11 ft 2 kts
2026-05-04 13:09 52.30867 4.77298 11 ft 2 kts
2026-05-04 13:09 52.30853 4.77292 11 ft 2 kts 38°
2026-05-04 13:09 52.30843 4.77272 11 ft 2 kts 72°
2026-05-04 13:09 52.30842 4.77257 11 ft 1 kts 94°
2026-05-04 13:10 52.30843 4.77247 11 ft 0 kts 94°
2026-05-04 13:12 52.30842 4.77264 11 ft 4 kts 94°
2026-05-04 13:12 52.30840 4.77330 11 ft 6 kts 93°
2026-05-04 13:12 52.30838 4.77396 10 ft 8 kts 93°
2026-05-04 13:12 52.30834 4.77521 8 ft 13 kts 92°
2026-05-04 13:13 52.30828 4.77616 8 ft 2 kts 107°
2026-05-04 13:13 52.30822 4.77629 8 ft 1 kts 170°
2026-05-04 13:13 52.30739 4.77600 6 ft 16 kts 191°
2026-05-04 13:13 52.30626 4.77574 6 ft 16 kts 200°
2026-05-04 13:14 52.30528 4.77579 4 ft 4 kts 148°
2026-05-04 13:14 52.30527 4.77580 4 ft 0 kts 148°
2026-05-04 13:14 52.30526 4.77581 4 ft 0 kts 148°
2026-05-04 13:15 52.30515 4.77592 3 ft 3 kts 150°
2026-05-04 13:15 52.30461 4.77636 2 ft 16 kts 162°
2026-05-04 13:15 52.30383 4.77558 2 ft 0 kts 238°
2026-05-04 13:15 52.30382 4.77556 2 ft 1 kts 238°
2026-05-04 13:16 52.30258 4.77230 0 ft 79 kts 238°
2026-05-04 13:16 52.29815 4.76087 -3 ft 157 kts 239°
2026-05-04 13:16 52.29160 4.74429 599 ft 174 kts 237°
2026-05-04 13:16 52.28516 4.72859 1576 ft 172 kts 240°
2026-05-04 13:17 52.27901 4.71138 2205 ft 185 kts 242°
2026-05-04 13:17 52.27145 4.69339 2723 ft 205 kts 225°
2026-05-04 13:17 52.25831 4.68309 3226 ft 223 kts 186°
2026-05-04 13:17 52.24272 4.68814 3728 ft 242 kts 153°
2026-05-04 13:18 52.22986 4.70647 4217 ft 260 kts 127°
2026-05-04 13:18 52.21974 4.73255 4698 ft 286 kts 120°
2026-05-04 13:18 52.20955 4.76222 5221 ft 312 kts 119°
2026-05-04 13:18 52.19864 4.79409 5718 ft 325 kts 120°
2026-05-04 13:19 52.18779 4.82555 6215 ft 329 kts 120°
2026-05-04 13:19 52.17638 4.85844 6722 ft 332 kts 120°
2026-05-04 13:19 52.16473 4.89144 7227 ft 335 kts 122°
2026-05-04 13:19 52.15089 4.92195 7748 ft 337 kts 135°
2026-05-04 13:20 52.13278 4.94534 8248 ft 338 kts 148°
2026-05-04 13:20 52.11261 4.96419 8730 ft 340 kts 153°
2026-05-04 13:20 52.09154 4.98213 9239 ft 342 kts 153°
2026-05-04 13:20 52.07064 4.99999 9714 ft 344 kts 153°
2026-05-04 13:21 52.04961 5.01856 10216 ft 347 kts 152°
2026-05-04 13:21 52.02842 5.03781 10708 ft 350 kts 151°
2026-05-04 13:21 52.00712 5.05755 11209 ft 353 kts 151°
2026-05-04 13:21 51.98574 5.07756 11708 ft 355 kts 151°
2026-05-04 13:22 51.96410 5.09788 12210 ft 358 kts 151°
2026-05-04 13:22 51.94268 5.11789 12700 ft 360 kts 152°
2026-05-04 13:22 51.91971 5.13537 13205 ft 361 kts 160°
2026-05-04 13:22 51.89664 5.14778 13685 ft 363 kts 165°
2026-05-04 13:23 51.87225 5.15839 14185 ft 365 kts 167°
2026-05-04 13:23 51.84788 5.16822 14679 ft 367 kts 167°
2026-05-04 13:23 51.82276 5.17836 15185 ft 370 kts 167°
2026-05-04 13:23 51.79776 5.18870 15687 ft 373 kts 167°
2026-05-04 13:24 51.77258 5.19941 16189 ft 374 kts 166°
2026-05-04 13:24 51.74772 5.21019 16683 ft 377 kts 166°
2026-05-04 13:24 51.72244 5.22128 17187 ft 379 kts 166°
2026-05-04 13:25 51.67137 5.24380 18193 ft 384 kts 166°
2026-05-04 13:25 51.64551 5.25521 18703 ft 386 kts 166°
2026-05-04 13:25 51.61948 5.26666 19213 ft 388 kts 166°
2026-05-04 13:25 51.59333 5.27814 19718 ft 389 kts 166°
2026-05-04 13:26 51.56726 5.28956 20215 ft 393 kts 166°
2026-05-04 13:26 51.54068 5.30118 20728 ft 395 kts 166°
2026-05-04 13:26 51.51419 5.31274 21231 ft 397 kts 166°
2026-05-04 13:26 51.48740 5.32442 21750 ft 400 kts 166°
2026-05-04 13:27 51.46131 5.33579 22257 ft 402 kts 167°
2026-05-04 13:27 51.43464 5.34740 22774 ft 404 kts 167°
2026-05-04 13:27 51.40738 5.35926 23304 ft 407 kts 167°
2026-05-04 13:27 51.37979 5.37125 23844 ft 409 kts 167°
2026-05-04 13:28 51.35237 5.38317 24389 ft 410 kts 167°
2026-05-04 13:28 51.32467 5.39524 24885 ft 413 kts 167°
2026-05-04 13:28 51.29676 5.40735 24959 ft 414 kts 167°
2026-05-04 13:28 51.26921 5.41932 24947 ft 413 kts 167°
2026-05-04 13:29 51.24136 5.43068 24949 ft 412 kts 169°
2026-05-04 13:29 51.21355 5.44055 24946 ft 411 kts 170°
2026-05-04 13:29 51.18556 5.44972 24946 ft 412 kts 171°
2026-05-04 13:29 51.15764 5.45944 24945 ft 413 kts 169°
2026-05-04 13:30 51.12979 5.47060 24943 ft 413 kts 167°
2026-05-04 13:30 51.10236 5.48238 24945 ft 414 kts 167°
2026-05-04 13:30 51.07458 5.49466 24948 ft 412 kts 166°
2026-05-04 13:30 51.04674 5.50709 24947 ft 412 kts 166°
2026-05-04 13:31 51.01937 5.51931 24955 ft 413 kts 167°
2026-05-04 13:31 50.99201 5.53143 24955 ft 412 kts 166°
2026-05-04 13:31 50.96421 5.54367 24950 ft 413 kts 167°
2026-05-04 13:31 50.93694 5.55561 24957 ft 410 kts 167°
2026-05-04 13:32 50.90966 5.56750 24957 ft 411 kts 167°
2026-05-04 13:32 50.88329 5.57899 24958 ft 409 kts 167°
2026-05-04 13:32 50.87129 5.58421 24960 ft 410 kts 167°
2026-05-04 13:32 50.84625 5.59506 24955 ft 411 kts 167°
2026-05-04 13:33 50.81861 5.60699 24961 ft 410 kts 167°
2026-05-04 13:33 50.79123 5.61877 24959 ft 410 kts 167°
2026-05-04 13:33 50.76402 5.63049 24959 ft 397 kts 167°
2026-05-04 13:33 50.73786 5.64180 24817 ft 383 kts 167°
2026-05-04 13:34 50.71379 5.65214 24317 ft 379 kts 168°
2026-05-04 13:34 50.68970 5.66245 23806 ft 375 kts 168°
2026-05-04 13:34 50.66420 5.67356 23267 ft 372 kts 167°
2026-05-04 13:34 50.63928 5.68493 22750 ft 369 kts 166°
2026-05-04 13:35 50.61448 5.69651 22227 ft 365 kts 166°
2026-05-04 13:35 50.56623 5.71995 21201 ft 360 kts 163°
2026-05-04 13:35 50.54288 5.73336 20697 ft 357 kts 161°
2026-05-04 13:36 50.51978 5.74732 20193 ft 354 kts 161°
2026-05-04 13:36 50.49700 5.76122 19685 ft 350 kts 161°
2026-05-04 13:36 50.47486 5.77464 19173 ft 337 kts 161°
2026-05-04 13:36 50.45424 5.78703 18697 ft 325 kts 161°
2026-05-04 13:37 50.43348 5.79940 18197 ft 314 kts 161°
2026-05-04 13:37 50.41315 5.81142 17499 ft 312 kts 161°
2026-05-04 13:37 50.39290 5.82330 16754 ft 310 kts 161°
2026-05-04 13:37 50.37301 5.83491 16022 ft 308 kts 161°
2026-05-04 13:38 50.35287 5.84664 15276 ft 305 kts 161°
2026-05-04 13:38 50.33339 5.85801 14540 ft 301 kts 160°
2026-05-04 13:38 50.31373 5.86942 13787 ft 298 kts 160°
2026-05-04 13:38 50.29448 5.88057 13046 ft 296 kts 161°
2026-05-04 13:39 50.27536 5.89168 12309 ft 293 kts 161°
2026-05-04 13:39 50.25658 5.90259 11567 ft 291 kts 161°
2026-05-04 13:39 50.23792 5.91342 10821 ft 289 kts 161°
2026-05-04 13:39 50.21929 5.92422 10076 ft 286 kts 161°
2026-05-04 13:40 50.20061 5.93503 9322 ft 284 kts 161°
2026-05-04 13:40 50.18232 5.94561 8574 ft 281 kts 161°
2026-05-04 13:40 50.16420 5.95612 7823 ft 279 kts 160°
2026-05-04 13:40 50.14740 5.97149 7082 ft 278 kts 144°
2026-05-04 13:41 50.13264 5.98738 7271 ft 247 kts 152°
2026-05-04 13:41 50.11826 5.99976 7509 ft 233 kts 153°
2026-05-04 13:41 50.10397 6.01119 7732 ft 231 kts 164°
2026-05-04 13:42 50.07213 6.01407 6891 ft 227 kts 182°
2026-05-04 13:42 50.05670 6.01279 6400 ft 226 kts 182°
2026-05-04 13:42 50.04104 6.01139 5898 ft 226 kts 182°
2026-05-04 13:42 50.02530 6.00990 5391 ft 225 kts 184°
2026-05-04 13:43 50.00980 6.00843 4896 ft 226 kts 183°
2026-05-04 13:43 49.99413 6.00701 4392 ft 225 kts 182°
2026-05-04 13:43 49.97855 6.00562 3968 ft 221 kts 183°
2026-05-04 13:43 49.96318 6.00430 3931 ft 218 kts 183°
2026-05-04 13:44 49.94794 6.00270 3941 ft 222 kts 184°
2026-05-04 13:44 49.93253 6.00145 3933 ft 220 kts 183°
2026-05-04 13:44 49.91726 6.00020 3936 ft 219 kts 183°
2026-05-04 13:44 49.90196 5.99902 3941 ft 219 kts 183°
2026-05-04 13:45 49.88808 5.99807 3937 ft 221 kts 182°
2026-05-04 13:45 49.87360 5.99711 3937 ft 219 kts 183°
2026-05-04 13:45 49.85850 5.99607 3943 ft 219 kts 183°
2026-05-04 13:45 49.84327 5.99497 3953 ft 220 kts 183°
2026-05-04 13:46 49.82806 5.99386 3940 ft 217 kts 183°
2026-05-04 13:46 49.81286 5.99274 3942 ft 217 kts 182°
2026-05-04 13:46 49.79761 5.99157 3947 ft 218 kts 183°
2026-05-04 13:46 49.78253 5.99037 3946 ft 218 kts 185°
2026-05-04 13:47 49.76735 5.98693 3953 ft 219 kts 191°
2026-05-04 13:47 49.75264 5.98167 3947 ft 218 kts 193°
2026-05-04 13:47 49.73775 5.97609 3959 ft 217 kts 193°
2026-05-04 13:47 49.72303 5.97062 3953 ft 218 kts 193°
2026-05-04 13:48 49.70823 5.96514 3786 ft 220 kts 193°
2026-05-04 13:48 49.69342 5.95967 3534 ft 218 kts 193°
2026-05-04 13:48 49.67866 5.95425 3242 ft 218 kts 193°
2026-05-04 13:48 49.66386 5.94890 2957 ft 216 kts 193°
2026-05-04 13:49 49.64928 5.94370 2952 ft 211 kts 193°
2026-05-04 13:49 49.63553 5.93877 2947 ft 195 kts 193°
2026-05-04 13:49 49.62262 5.93408 2949 ft 180 kts 193°
2026-05-04 13:49 49.61072 5.92972 2956 ft 175 kts 193°
2026-05-04 13:50 49.59900 5.92541 2955 ft 173 kts 193°
2026-05-04 13:50 49.58717 5.92112 2975 ft 173 kts 193°
2026-05-04 13:50 49.57538 5.91685 2953 ft 175 kts 193°
2026-05-04 13:50 49.56343 5.91263 2949 ft 174 kts 193°
2026-05-04 13:51 49.55146 5.91111 2951 ft 175 kts 171°
2026-05-04 13:51 49.54084 5.92012 2950 ft 181 kts 134°
2026-05-04 13:51 49.53611 5.93830 2958 ft 190 kts 97°
2026-05-04 13:51 49.53653 5.95880 2956 ft 192 kts 91°
2026-05-04 13:52 49.53721 5.99994 2957 ft 191 kts 93°
2026-05-04 13:52 49.53756 6.02028 2959 ft 192 kts 89°
2026-05-04 13:52 49.54223 6.03953 2962 ft 198 kts 53°
2026-05-04 13:53 49.55335 6.05268 2981 ft 202 kts 31°
2026-05-04 13:53 49.56546 6.06351 2973 ft 201 kts 32°
2026-05-04 13:53 49.57727 6.07482 2973 ft 199 kts 33°
2026-05-04 13:54 49.59295 6.10849 2790 ft 199 kts 62°
2026-05-04 13:54 49.60117 6.12525 2548 ft 192 kts 51°
2026-05-04 13:54 49.61121 6.16188 1807 ft 186 kts 83°
2026-05-04 13:55 49.61491 6.18059 1393 ft 182 kts 59°
2026-05-04 13:55 49.62504 6.20781 1225 ft 71 kts 60°
2026-05-04 13:55 49.62669 6.21213 1223 ft 46 kts 59°
2026-05-04 13:56 49.62814 6.21604 1215 ft 39 kts 59°
2026-05-04 13:56 49.62952 6.21973 1211 ft 39 kts 62°
2026-05-04 13:56 49.63113 6.22079 1214 ft 0 kts 330°
2026-05-04 13:58 49.63187 6.22031 1217 ft 4 kts 33°
2026-05-04 13:58 49.63288 6.22093 1218 ft 8 kts 317°
2026-05-04 13:58 49.63313 6.22053 1221 ft 3 kts 314°
2026-05-04 13:59 49.63338 6.22013 1224 ft 8 kts 313°
2026-05-04 13:59 49.63356 6.21961 1227 ft 2 kts 268°
2026-05-04 13:59 49.63289 6.21894 1227 ft 0 kts 206°
2026-05-04 14:00 49.63287 6.21892 1227 ft 0 kts 207°
2026-05-04 14:00 49.63285 6.21891 1227 ft 0 kts 207°